This is the latest recevied weather packets stored in our database for station/object HS5BOG-13. If no packets are shown the sender has not sent any weather packets the latest 10 day(s).
| Time | Temp. | Humidity | Pressure | Rain* | Wind** | Luminosity | Snow |
|---|---|---|---|---|---|---|---|
| 1778202096 | 29.44° C | 73% | 993.5 hPa | - | - | - | - |
| 1778201490 | 29.44° C | 72% | 993.4 hPa | - | - | - | - |
| 1778200885 | 29.44° C | 71% | 993.5 hPa | - | - | - | - |
| 1778200279 | 29.44° C | 71% | 993.5 hPa | - | - | - | - |
| 1778199673 | 29.44° C | 71% | 993.5 hPa | - | - | - | - |
| 1778199068 | 28.89° C | 72% | 993.4 hPa | - | - | - | - |
| 1778198462 | 29.44° C | 72% | 993.3 hPa | - | - | - | - |
| 1778197856 | 29.44° C | 72% | 993.4 hPa | - | - | - | - |
| 1778197251 | 29.44° C | 71% | 993.2 hPa | - | - | - | - |
| 1778196645 | 29.44° C | 71% | 993 hPa | - | - | - | - |
| 1778196040 | 29.44° C | 71% | 993 hPa | - | - | - | - |
| 1778195434 | 29.44° C | 71% | 992.9 hPa | - | - | - | - |
| 1778194829 | 30° C | 72% | 992.7 hPa | - | - | - | - |
| 1778194223 | 29.44° C | 72% | 992.6 hPa | - | - | - | - |
| 1778193617 | 29.44° C | 74% | 992.6 hPa | - | - | - | - |
| 1778193012 | 29.44° C | 75% | 992.4 hPa | - | - | - | - |
| 1778192406 | 29.44° C | 79% | 992.1 hPa | - | - | - | - |
| 1778191801 | 29.44° C | 81% | 991.9 hPa | - | - | - | - |
| 1778191195 | 29.44° C | 81% | 991.6 hPa | - | - | - | - |
| 1778190569 | 29.44° C | 80% | 991.5 hPa | - | - | - | - |
| 1778189964 | 29.44° C | 80% | 991.4 hPa | - | - | - | - |
| 1778189358 | 29.44° C | 80% | 991.3 hPa | - | - | - | - |
| 1778188662 | 29.44° C | 77% | 991.2 hPa | - | - | - | - |
| 1778188056 | 29.44° C | 76% | 991 hPa | - | - | - | - |
| 1778187451 | 29.44° C | 75% | 991 hPa | - | - | - | - |
* Rain since midnight (hover to see other rain measurements)
** Current wind speed in m/s (hover to see current wind gust speed)